EW3814 Weather Reports


time (UTC)temp
C
wind
direction
speed
KPH
gust
KPH
rain 1hr
cm
rain 24hr
cm
rain mn
cm
humidity
%
barometer
mb
20260508125745 9 255 0.0 0.0 0.00 0.13 0.00 95 1020.5
20260508124745 9 256 0.0 0.0 0.00 0.13 0.00 95 1020.4
20260508124246 8 256 0.0 0.0 0.00 0.15 0.00 95 1020.3
20260508123742 8 256 0.0 0.0 0.00 0.15 0.00 95 1020.3
20260508123243 8 256 0.0 0.0 0.00 0.15 0.00 95 1020.3
20260508122743 8 256 0.0 0.0 0.00 0.15 0.00 95 1020.3
20260508122242 8 256 0.0 0.0 0.00 0.20 0.00 95 1020.2
20260508121242 7 256 0.0 0.0 0.00 0.23 0.00 95 1020.2
20260508120744 7 256 0.0 0.0 0.00 0.28 0.00 95 1020.1
20260508120243 7 256 0.0 0.0 0.00 0.30 0.00 94 1020.1
20260508115744 7 256 0.0 0.0 0.00 0.30 0.00 94 1020.1
20260508115244 7 256 0.0 0.0 0.00 0.30 0.00 94 1020.0
20260508114742 7 256 0.0 0.0 0.00 0.30 0.00 94 1019.9
20260508114244 7 256 0.0 0.0 0.00 0.30 0.00 94 1019.8
20260508113743 7 256 0.0 0.0 0.00 0.30 0.00 94 1019.7
20260508113243 7 256 0.0 0.0 0.00 0.30 0.00 94 1019.6
20260508112243 7 256 0.0 0.0 0.00 0.30 0.00 94 1019.5
20260508111741 7 256 0.0 0.0 0.00 0.33 0.00 94 1019.5
20260508111242 7 256 0.0 0.0 0.00 0.36 0.00 94 1019.5
20260508110737 7 256 0.0 0.0 0.00 0.36 0.00 94 1019.4
20260508110236 7 256 0.0 0.0 0.00 0.36 0.00 94 1019.3
20260508105736 7 256 0.0 0.0 0.00 0.38 0.00 94 1019.2
20260508105237 7 256 0.0 0.0 0.00 0.38 0.00 94 1019.2
20260508104237 7 256 0.0 0.0 0.00 0.38 0.00 93 1018.7
20260508103736 7 256 0.0 0.0 0.00 0.38 0.00 93 1018.6
20260508103237 7 256 0.0 0.0 0.00 0.38 0.00 93 1018.6
20260508102736 7 256 0.0 0.0 0.00 0.38 0.00 93 1018.5
20260508102236 7 256 0.0 0.0 0.00 0.38 0.00 93 1018.5
20260508101234 7 256 0.0 0.0 0.00 0.38 0.00 93 1018.3
20260508100735 7 256 0.0 0.0 0.00 0.38 0.00 93 1018.3
20260508100236 8 256 0.0 0.0 0.00 0.38 0.00 93 1018.3
20260508095736 8 256 0.0 0.0 0.00 0.38 0.00 93 1018.3
20260508094734 8 256 0.0 0.0 0.00 0.38 0.00 93 1018.1
20260508093234 8 256 0.0 0.0 0.00 0.38 0.00 94 1018.0
20260508092733 8 256 0.0 0.0 0.00 0.38 0.00 94 1018.1
20260508092232 8 256 0.0 0.0 0.00 0.38 0.00 93 1018.0
20260508091734 8 256 0.0 0.0 0.00 0.38 0.00 93 1017.9
20260508091233 8 256 0.0 0.0 0.00 0.38 0.00 93 1018.0
20260508090732 8 256 0.0 0.0 0.00 0.38 0.00 93 1017.9
20260508090232 8 256 0.0 0.0 0.00 0.38 0.00 93 1017.7
20260508085732 8 256 0.0 0.0 0.00 0.38 0.00 93 1017.9
20260508085233 8 256 0.0 0.0 0.00 0.38 0.00 93 1017.9
20260508084733 8 256 0.0 0.0 0.00 0.38 0.00 93 1018.0
20260508084231 8 256 0.0 0.0 0.00 0.38 0.00 93 1017.9
20260508083730 8 256 0.0 0.0 0.00 0.38 0.00 93 1017.8
20260508083334 8 256 0.0 0.0 0.00 0.38 0.00 93 1017.9
20260508082833 8 256 0.0 0.0 0.00 0.38 0.00 93 1017.9
20260508081330 9 256 0.0 0.0 0.00 0.38 0.00 93 1017.8
20260508080827 9 256 0.0 0.0 0.00 0.38 0.00 93 1017.7
20260508080327 9 256 0.0 0.0 0.00 0.38 0.00 93 1017.6
20260508075824 9 256 0.0 0.0 0.00 0.38 0.00 93 1017.4
20260508075323 9 256 0.0 0.0 0.00 0.38 0.00 93 1017.5
20260508074821 9 256 0.0 0.0 0.00 0.38 0.00 93 1017.3
20260508074319 9 256 0.0 0.0 0.00 0.38 0.00 93 1017.4
20260508073818 9 256 0.0 0.0 0.00 0.38 0.00 93 1017.5
20260508073317 9 256 0.0 0.0 0.00 0.38 0.00 93 1017.4
20260508072815 10 256 0.0 0.0 0.00 0.38 0.00 93 1017.2
20260508072314 10 256 0.0 0.0 0.00 0.41 0.00 93 1017.4
20260508071811 10 256 0.0 0.0 0.00 0.41 0.00 93 1017.3
20260508070810 10 256 0.0 0.0 0.00 0.41 0.00 93 1017.2
20260508070308 10 256 0.0 0.0 0.00 0.41 0.00 93 1017.1
20260508065806 10 256 0.0 0.0 0.00 0.41 0.00 93 1017.2
20260508064301 10 256 0.0 0.0 0.00 0.41 0.00 93 1017.1
20260508063759 10 256 0.0 0.0 0.00 0.41 0.00 93 1017.0
20260508063256 10 256 0.0 0.0 0.00 0.43 0.00 93 1017.0
20260508062756 10 256 0.0 0.0 0.00 0.46 0.00 93 1017.1
20260508061752 10 256 0.0 0.0 0.00 0.46 0.00 93 1017.0
20260508061251 10 256 0.0 0.0 0.00 0.46 0.00 93 1017.1
20260508060748 10 256 0.0 0.0 0.00 0.46 0.00 93 1017.2
20260508060247 10 256 0.0 0.0 0.00 0.46 0.00 93 1017.1
20260508055746 10 256 0.0 0.0 0.00 0.46 0.00 93 1017.1
20260508055245 10 256 0.0 0.0 0.00 0.48 0.00 93 1017.1
20260508054744 10 256 0.0 0.0 0.00 0.48 0.00 93 1017.0
20260508054241 11 256 0.0 0.0 0.00 0.53 0.00 93 1017.0
20260508053239 11 256 0.0 0.0 0.00 0.56 0.00 93 1016.8
20260508052737 11 256 0.0 0.0 0.00 0.58 0.00 93 1016.7
20260508052236 11 256 0.0 0.0 0.00 0.58 0.00 93 1016.8
20260508051233 11 256 0.0 0.0 0.00 0.64 0.00 93 1017.0
20260508050733 11 256 0.0 0.0 0.00 0.64 0.00 93 1016.7
20260508050230 11 256 0.0 0.0 0.00 0.64 0.00 93 1016.7
20260508045227 11 256 0.0 0.0 0.00 0.64 0.00 93 1016.7
20260508044725 11 256 0.0 0.0 0.00 0.64 0.00 93 1016.6
20260508044224 11 256 0.0 0.0 0.00 0.64 0.00 93 1016.6
20260508043723 11 256 0.0 0.0 0.00 0.64 0.00 93 1016.4
20260508043225 11 256 0.0 0.0 0.00 0.64 0.00 93 1016.4
20260508042724 11 256 0.0 0.0 0.00 0.64 0.00 93 1016.5
20260508042224 11 256 0.0 0.0 0.00 0.64 0.00 93 1016.4
20260508041223 11 256 0.0 0.0 0.00 0.64 0.00 93 1016.5
20260508040723 12 256 0.0 0.0 0.00 0.64 0.00 93 1016.5
20260508040223 12 256 0.0 0.0 0.00 0.64 0.00 93 1016.4
20260508035724 12 256 0.0 0.0 0.00 0.64 0.64 93 1016.4
20260508035223 12 256 0.0 0.0 0.00 0.64 0.64 93 1016.3
20260508034724 12 256 0.0 0.0 0.00 0.64 0.64 93 1016.3
20260508034224 12 256 0.0 0.0 0.00 0.64 0.64 93 1016.4
20260508033225 12 256 0.0 0.0 0.00 0.64 0.64 93 1016.4
20260508032724 12 256 0.0 0.0 0.00 0.64 0.64 93 1016.4
20260508031225 12 256 0.0 0.0 0.00 0.66 0.64 93 1016.3
20260508030723 12 256 0.0 0.0 0.00 0.66 0.64 93 1016.2
20260508030224 12 256 0.0 0.0 0.00 0.69 0.64 92 1016.1
20260508025723 12 256 0.0 0.0 0.00 0.74 0.64 92 1015.9
20260508024722 12 256 0.0 0.0 0.00 0.79 0.64 92 1015.9
20260508024222 12 256 0.0 0.0 0.00 0.79 0.64 92 1016.0
20260508023721 12 256 0.0 0.0 0.00 0.81 0.64 92 1015.9
20260508023220 13 256 0.0 0.0 0.00 0.86 0.64 92 1015.9
20260508022719 13 256 0.0 0.0 0.00 0.99 0.64 92 1015.8
20260508022220 13 256 0.0 0.0 0.00 1.02 0.64 92 1015.9
20260508021719 13 256 0.0 0.0 0.00 1.02 0.64 92 1015.7
20260508021221 13 256 0.0 0.0 0.00 1.04 0.64 92 1015.7
20260508020718 13 256 0.0 0.0 0.00 1.09 0.64 92 1015.5
20260508020218 13 256 0.0 0.0 0.00 1.14 0.64 92 1015.5
20260508015218 13 256 0.0 0.0 0.00 1.22 0.64 91 1015.5
20260508014217 13 256 0.0 0.0 0.00 1.27 0.64 91 1015.2
20260508013716 13 256 0.0 0.0 0.00 1.30 0.64 91 1015.0
20260508012714 13 256 0.0 0.0 0.00 1.37 0.64 91 1014.9
20260508012213 13 256 0.0 0.0 0.00 1.37 0.64 90 1014.8
20260508011212 14 256 0.0 0.0 0.00 1.40 0.64 90 1014.8
20260508010712 14 256 0.0 0.0 0.00 1.42 0.64 90 1014.5
20260508005713 14 256 0.0 0.0 0.00 1.45 0.64 89 1014.2
20260508005211 14 256 0.0 0.0 0.00 1.45 0.64 89 1014.1
20260508004711 15 256 0.0 0.0 0.00 1.45 0.64 89 1014.0
20260508004211 15 256 0.0 0.0 0.00 1.47 0.64 89 1013.9
20260508003212 15 256 0.0 0.0 0.00 1.47 0.64 89 1013.7
20260508002712 15 256 0.0 0.0 0.00 1.50 0.64 88 1013.7
20260508002210 15 256 0.0 0.0 0.00 1.50 0.64 88 1013.5
20260508001209 15 255 0.0 0.0 0.00 1.50 0.64 88 1013.7
20260508000709 15 255 0.0 0.0 0.00 1.50 0.64 88 1013.7
20260508000212 15 255 0.0 0.0 0.00 1.50 0.64 88 1013.6
20260507235710 15 255 0.0 0.0 0.00 1.50 0.64 87 1013.3
20260507235210 15 255 0.0 0.0 0.00 1.50 0.64 87 1013.2
20260507234710 15 255 0.0 0.0 0.00 1.50 0.64 87 1013.3
20260507234209 15 252 0.0 0.0 0.00 1.52 0.64 87 1013.4
20260507233710 15 252 0.0 0.0 0.00 1.52 0.64 86 1013.5
20260507233206 15 252 0.0 0.0 0.00 1.52 0.64 86 1013.4
20260507232707 15 252 0.0 0.0 0.00 1.52 0.64 86 1013.3
20260507232207 16 289 0.0 0.0 0.00 1.52 0.64 87 1013.2
20260507231707 16 289 0.0 0.0 0.00 1.52 0.64 87 1013.2
20260507231207 16 289 0.0 0.0 0.00 1.52 0.64 87 1013.0
20260507230707 16 290 0.0 0.0 0.00 1.52 0.64 86 1013.1
20260507230208 16 290 0.0 0.0 0.00 1.52 0.64 86 1013.1
20260507224206 16 359 0.0 0.0 0.00 1.52 0.64 85 1012.5
20260507223706 16 359 0.0 0.0 0.00 1.52 0.64 85 1012.4
20260507222703 16 16 0.0 0.0 0.00 1.52 0.64 84 1012.4
20260507222203 16 46 0.0 0.0 0.00 1.52 0.64 85 1012.3
20260507221703 16 27 0.0 0.0 0.00 1.52 0.64 85 1012.0
20260507221204 16 44 0.0 0.0 0.00 1.52 0.64 85 1012.2
20260507220702 16 221 0.0 0.0 0.00 1.52 0.64 84 1012.2
20260507220203 16 221 0.0 0.0 0.00 1.52 0.64 84 1012.2
20260507215703 17 110 0.0 0.0 0.00 1.52 0.64 84 1011.9
20260507215200 17 172 0.0 0.0 0.00 1.52 0.64 84 1011.5
20260507214702 17 172 0.0 0.0 0.00 1.52 0.64 84 1011.5
20260507214202 17 229 0.0 0.0 0.00 1.52 0.64 84 1011.8
20260507213701 17 331 0.0 0.0 0.00 1.52 0.64 84 1011.3
20260507213201 17 330 0.0 0.0 0.00 1.52 0.64 84 1011.4
20260507212701 17 331 0.0 0.0 0.00 1.52 0.64 84 1011.3
20260507212201 17 192 0.0 0.0 0.00 1.52 0.64 84 1011.3
20260507211700 17 11 0.0 0.0 0.00 1.52 0.64 83 1011.3
20260507211200 17 328 0.0 0.0 0.00 1.52 0.64 82 1011.1
20260507210701 18 330 0.0 0.0 0.00 1.52 0.64 84 1011.1
20260507205658 18 32 0.0 0.0 0.00 1.52 0.64 85 1011.0
20260507205158 18 15 0.0 0.0 0.00 1.52 0.64 85 1010.8
20260507204658 18 88 0.0 4.8 0.00 1.52 0.64 83 1011.2
20260507204157 18 226 0.0 4.8 0.00 1.52 0.64 82 1011.1
20260507203657 18 174 0.0 0.0 0.00 1.52 0.64 81 1011.3
20260507203156 19 170 0.0 0.0 0.00 1.52 0.64 79 1010.9
20260507202655 19 11 0.0 0.0 0.00 1.52 0.64 77 1010.8
20260507201655 20 343 0.0 9.7 0.00 1.52 0.64 74 1011.5
20260507201156 21 327 0.0 6.4 0.00 1.52 0.64 73 1010.9
20260507200657 22 184 0.0 6.4 0.00 1.52 0.64 71 1010.8
20260507195655 23 235 0.0 0.0 0.00 1.52 0.64 71 1010.2
20260507195152 23 348 0.0 3.2 0.00 1.52 0.64 73 1010.2
20260507194652 23 46 0.0 3.2 0.00 1.52 0.64 69 1009.9
20260507194153 23 130 0.0 0.0 0.00 1.52 0.64 73 1010.0
20260507193651 23 275 0.0 3.2 0.00 1.52 0.64 73 1009.9
20260507193150 23 269 0.0 4.8 0.00 1.52 0.64 75 1010.0
20260507191651 24 215 0.0 0.0 0.00 1.52 0.64 76 1010.1
20260507190650 23 215 0.0 0.0 0.00 1.52 0.64 77 1010.1
20260507190147 23 215 0.0 0.0 0.00 1.52 0.64 80 1010.1
20260507185647 23 277 0.0 0.0 0.00 1.52 0.64 77 1010.2
20260507185149 23 277 0.0 0.0 0.00 1.52 0.64 80 1010.3
20260507184649 22 232 0.0 0.0 0.00 1.52 0.64 81 1010.3
20260507183647 22 231 0.0 0.0 0.00 1.52 0.64 79 1010.6
20260507183146 22 276 0.0 0.0 0.00 1.52 0.64 83 1010.6
20260507182646 22 7 0.0 3.2 0.00 1.52 0.64 79 1010.4
20260507182146 22 106 0.0 3.2 0.00 1.52 0.64 81 1010.5
20260507181646 22 19 0.0 0.0 0.00 1.52 0.64 81 1010.4
20260507181147 22 21 0.0 0.0 0.00 1.52 0.64 87 1010.6
20260507180646 21 14 0.0 0.0 0.00 1.52 0.64 86 1010.7
20260507175145 22 14 0.0 0.0 0.00 1.52 0.64 81 1011.1
20260507174146 21 110 0.0 1.6 0.00 1.52 0.64 83 1011.0
20260507173647 21 36 0.0 0.0 0.00 1.52 0.64 87 1011.1
20260507173146 21 36 0.0 0.0 0.00 1.52 0.64 87 1011.0
20260507172645 21 44 0.0 0.0 0.00 1.52 0.64 86 1011.1
20260507172145 21 32 0.0 0.0 0.00 1.55 0.64 90 1011.3
20260507171646 21 38 0.0 0.0 0.00 1.55 0.64 92 1011.4
20260507171146 20 38 0.0 0.0 0.00 1.55 0.64 88 1011.4
20260507170146 20 36 0.0 0.0 0.00 1.57 0.64 91 1011.6
20260507165146 20 306 0.0 0.0 0.00 1.60 0.64 92 1011.6
20260507164646 20 306 0.0 0.0 0.00 1.60 0.64 92 1011.7
20260507163647 20 305 0.0 0.0 0.00 1.60 0.64 93 1011.5
20260507162646 20 305 0.0 0.0 0.00 1.60 0.64 94 1011.4
20260507162146 19 285 0.0 0.0 0.03 1.60 0.64 93 1011.7
20260507161643 19 284 0.0 0.0 0.03 1.60 0.64 93 1012.0
20260507155241 19 281 0.0 0.0 0.05 1.60 0.64 95 1011.3
20260507154739 18 281 0.0 0.0 0.05 1.60 0.64 94 1011.2
20260507154239 19 281 0.0 0.0 0.05 1.60 0.64 95 1011.2
20260507153737 18 281 0.0 0.0 0.05 1.60 0.64 95 1011.1
20260507153235 18 281 0.0 0.0 0.05 1.60 0.64 95 1011.1
20260507152734 18 281 0.0 0.0 0.05 1.60 0.64 95 1011.6
20260507152232 18 280 0.0 0.0 0.05 1.57 0.61 95 1011.4
20260507151731 18 280 0.0 0.0 0.05 1.57 0.61 95 1011.8
20260507151230 18 280 0.0 0.0 0.05 1.57 0.61 95 1011.8
20260507150225 18 280 0.0 0.0 0.05 1.57 0.61 95 1012.0
20260507145724 18 280 0.0 0.0 0.03 1.55 0.58 95 1012.0
20260507145225 18 29 0.0 0.0 0.03 1.55 0.58 95 1012.1
20260507144721 18 29 0.0 0.0 0.03 1.55 0.58 95 1012.3
20260507144219 18 29 0.0 0.0 0.05 1.55 0.58 95 1012.7
20260507143215 18 29 0.0 0.0 0.05 1.55 0.58 95 1013.0
20260507142714 18 29 0.0 0.0 0.05 1.55 0.58 95 1012.7
20260507142212 18 29 0.0 0.0 0.03 1.52 0.56 95 1012.2
20260507141711 18 29 0.0 0.0 0.03 1.52 0.56 95 1012.0
20260507141210 18 29 0.0 0.0 0.03 1.52 0.56 95 1011.9
20260507140707 18 29 0.0 0.0 0.03 1.52 0.56 95 1012.1
20260507140207 18 29 0.0 0.0 0.05 1.52 0.56 95 1011.9
20260507135203 17 29 0.0 0.0 0.05 1.52 0.56 95 1012.0
20260507134702 17 29 0.0 0.0 0.05 1.52 0.56 95 1011.9
20260507134201 17 29 0.0 0.0 0.05 1.50 0.53 95 1012.0
20260507133700 17 29 0.0 0.0 0.05 1.50 0.53 95 1012.0
20260507133158 17 29 0.0 0.0 0.05 1.50 0.53 95 1011.6
20260507132654 17 29 0.0 0.0 0.08 1.50 0.53 95 1011.6
20260507132154 17 29 0.0 0.0 0.10 1.50 0.53 95 1011.4
20260507131652 17 29 0.0 0.0 0.10 1.50 0.53 95 1011.7
20260507131151 17 29 0.0 0.0 0.15 1.50 0.53 95 1011.6
20260507130649 17 29 0.0 0.0 0.18 1.50 0.53 95 1011.7
20260507130148 17 29 0.0 0.0 0.18 1.47 0.51 95 1011.6